RISAT-1

operational
NORAD ID: 38248 Int'l Des: 2012-017 Owner: ISRO Country: IN
LEOCIRCULARRETROGRADE
追跡 地上

RISAT-1について

説明を読み込み中...

リアルタイム位置

3D地球を読み込み中...

次回通過

高度履歴

Altitude vs Time

uPlot chart will show altitude changes over time

軌道要素

1 38248U 12017A 26073.60357662 .00055383 00000-0 73657-3 0 9994
2 38248 97.4522 116.4527 0003718 111.9717 248.1934 15.58006305767316
Epoch: Mar 14, 2026 • Age: 4 hours

現在のステータス

高度 423.9 km
速度 7.65 km/s
衛星直下点 -80.20°S, 71.82°E
打ち上げ日 Apr 26, 2012
運用期間 13.8 years
タイプ other

技術仕様

分類 Payload
質量 1858.00 kg
乾燥質量 1805.00 kg
総質量 1858.00 kg
長さ 3.90 m
直径 2.00 m
スパン 11.70 m
形状 Box + Hex Box+3 pan
製造者 ISAC/HAL
バスタイプ IRS
フェーズステータス In Orbit
所有者/国 ISRO/IN

大規模コンステレーション

Loading constellations...